Location: Unspecified
(0.0000°N, 0.0000°E)
Time: 11:50:00
(UTC+02:00)

ISS - All Passes

Search period start: 21 April 2015 00:00
Search period end: 01 May 2015 00:00
Orbit: 395 x 403 km, 51.6° (Epoch: 20 April)

Date Brightness Start Highest point End Pass type
(mag) Time Alt. Az. Time Alt. Az. Time Alt. Az.
21 Apr - 00:18:17 10° NNW 00:21:13 34° NE 00:24:12 10° ESE night (unlit)
21 Apr - 11:51:47 10° S 11:54:14 20° SE 11:56:46 10° ENE daylight
21 Apr - 13:29:18 10° WNW 13:30:31 11° NW 13:31:33 10° NNW daylight
21 Apr - 23:25:50 10° NNE 23:27:11 12° NE 23:28:41 10° E night (unlit)
22 Apr - 01:01:05 10° W 01:03:27 18° SW 01:05:45 10° S night (unlit)
22 Apr - 12:33:31 10° WSW 12:36:27 31° NW 12:39:20 10° N daylight
23 Apr - 00:06:14 10° NW 00:09:23 56° SW 00:12:34 10° SSE night (unlit)
23 Apr - 11:39:10 10° SSW 11:42:24 77° ESE 11:45:37 10° NE daylight
23 Apr - 23:12:17 10° NNW 23:15:20 40° NE 23:18:23 10° SE night (unlit)
24 Apr - 10:45:38 10° S 10:48:17 24° SE 10:50:58 10° ENE daylight
24 Apr - 22:19:22 10° NNE 22:21:09 14° NE 22:23:03 10° E night (unlit)
24 Apr - 23:55:16 10° W 23:57:23 16° SW 23:59:25 10° SSW night (unlit)
25 Apr - 11:27:30 10° WSW 11:30:18 26° NW 11:33:03 10° N daylight
25 Apr - 23:00:03 10° NW 23:03:10 46° SW 23:06:16 10° SSE night (unlit)
26 Apr - 10:32:51 10° SW 10:36:05 88° NW 10:39:18 10° NE daylight
26 Apr - 22:05:49 10° NNW 22:08:56 48° NE 22:12:04 10° SE visible
27 Apr - 09:39:01 10° S 09:41:48 27° SE 09:44:38 10° ENE daylight
27 Apr - 21:12:31 10° NNE 21:14:36 16° NE 21:16:46 10° E visible
27 Apr - 22:48:59 10° W 22:50:50 14° SW 22:52:34 10° SSW night (unlit)
28 Apr - 10:21:00 10° WSW 10:23:39 23° NW 10:26:15 10° N daylight
28 Apr - 21:53:23 10° NW 21:56:26 39° SW 21:59:28 10° SSE visible
29 Apr - 09:26:03 10° SW 09:29:15 75° NW 09:32:28 10° NNE daylight
29 Apr - 20:58:52 10° NNW 21:02:02 57° NE 21:05:12 10° SE visible
30 Apr - 08:31:57 10° S 08:34:50 31° SE 08:37:45 10° ENE daylight
30 Apr - 20:05:15 10° N 20:07:32 18° NE 20:09:55 10° E daylight
30 Apr - 21:42:15 10° W 21:43:47 12° SW 21:45:09 10° SSW visible
